DELTA 1 DEB, 7957

Orbit data source: Space-Track

DELTA 1 DEB, 7957 is space debris in SSO originally from a launch on Sun, 23 Jul 1972 UTC launched from the Air Force Western Test Range (AFWTR). Debris objects in space refer to the collection of defunct objects orbiting the Earth. Examples of debris include non-operational satellites, rocket bodies, and fragments generated from explosions, collisions, or faulty payload assembly.

Loading next visibility...
Identifier
7957, 1972-058CM
Orbit
SSO
Country
Flag of USUS
Related business
Manufacturer
Unknown
Mission
Spacecraft
Bus & Motor
Unknown
Mass
Unknown
Launch date (UTC)
1972-07-23 (54 years ago)
Launch vehicle
Unknown
Launch site
Air Force Western Test Range (AFWTR)
Object type
Payload
Rocket body
Debris
Shape & HBR
Unknown shape, 0.2 m
Radar Cross Section
Medium (>0.1 m² and <1 m²)

Expand to show TLE details & history
Last TLE update: 14 hours ago

TLE from 14 hours ago
0 DELTA 1 DEB
1  7957U 72058CM  26150.06160561  .00001060  00000-0  55433-3 0  9999
2  7957  98.9033   3.8039 0510280 235.3905 119.8111 13.65282924806590
Epoch: 2026-05-30T01:28Z
TLE epoch observation values (Epoch: 2026-05-30T01:28:42.724Z)
Latitude
-0.00005°
Longitude
94.04285°
Altitude
1,220.962 km
Speed
7.145 km/s
True Right ascension
00h 15m 12s
True Declination
0° 00' 00"
Sunlit
Object was in daylight at epoch
Visualization orbit readout
Latitude
Unknown
Longitude
Unknown
Altitude
Unknown
Speed
Unknown
Apparent Right ascension
Unknown
Apparent Declination
Unknown
Sunlit
N/A
Visualization observer readout
Local Sidereal Time
01:12:52
Azimuth
Unknown
Elevation
Unknown
Doppler factor
Unknown
Orbital elements
Apogee altitude
1,390.98 km
Perigee altitude
636.59 km
Semi-major axis
7,391.922 km
Eccentricity
0.05103
Inclination
98.9033°
RAAN
3.8039°
Arg. of periapsis
235.3905°
True anomaly
124.72257°
Mean anomaly
119.8111°
Eccentric anomaly
122.28285°
Mean motion
3.41513 °/min
Orbital period
105.41 mins
BSTAR
0.00055433
Loading maneuver chart data...
Computing Atmospheric mass density...
Loading historical data...
Loading historical data...
Loading historical data...
Loading historical data...
Loading historical data...
Loading historical data...
Loading historical data...

Documentation

Showing up to 5 results
|